This is the latest recevied weather packets stored in our database for station/object KA9CBS. If no packets are shown the sender has not sent any weather packets the latest 10 day(s).
| Time | Temp. | Humidity | Pressure | Rain* | Wind** | Luminosity | Snow |
|---|---|---|---|---|---|---|---|
| 1787717732 | 22.22° C | 87% | 1018.4 hPa | 0 mm | - | 0 W/m² | - |
| 1787717428 | 22.22° C | 86% | 1018.1 hPa | 0 mm | - | 0 W/m² | - |
| 1787717127 | 22.22° C | 86% | 1018.1 hPa | 0 mm | - | 0 W/m² | - |
| 1787716823 | 22.22° C | 87% | 1018.2 hPa | 0 mm | - | 0 W/m² | - |
| 1787716521 | 22.22° C | 88% | 1018 hPa | 0 mm | - | 0 W/m² | - |
| 1787716216 | 22.22° C | 87% | 1018.2 hPa | 0 mm | - | 0 W/m² | - |
| 1787715916 | 22.78° C | 86% | 1018.2 hPa | 0 mm | - | 0 W/m² | - |
| 1787715615 | 22.78° C | 85% | 1018 hPa | 0 mm | - | 0 W/m² | - |
| 1787715310 | 22.78° C | 85% | 1018.2 hPa | 0 mm | - | 0 W/m² | - |
| 1787715007 | 22.22° C | 87% | 1018.2 hPa | 0 mm | - | 0 W/m² | - |
| 1787714702 | 22.22° C | 86% | 1018.4 hPa | 0 mm | - | 0 W/m² | - |
| 1787714399 | 22.78° C | 84% | 1018.1 hPa | 0 mm | - | 0 W/m² | - |
| 1787714095 | 23.33° C | 82% | 1018.2 hPa | 0 mm | - | 0 W/m² | - |
| 1787713791 | 23.33° C | 81% | 1018.2 hPa | 0 mm | - | 0 W/m² | - |
| 1787713485 | 23.33° C | 81% | 1018.3 hPa | 0 mm | - | 0 W/m² | - |
| 1787713182 | 22.22° C | 85% | 1018.5 hPa | 0 mm | - | 0 W/m² | - |
| 1787712877 | 22.22° C | 88% | 1018.3 hPa | 0 mm | - | 0 W/m² | - |
| 1787712574 | 22.22° C | 87% | 1018.3 hPa | 0 mm | - | 0 W/m² | - |
| 1787712268 | 22.22° C | 86% | 1018.4 hPa | 0 mm | - | 0 W/m² | - |
| 1787711963 | 22.22° C | 86% | 1018.2 hPa | 0 mm | - | 0 W/m² | - |
| 1787711658 | 22.22° C | 86% | 1018.1 hPa | 0 mm | - | 0 W/m² | - |
| 1787711354 | 22.22° C | 87% | 1018.5 hPa | 0 mm | - | 0 W/m² | - |
| 1787711049 | 22.22° C | 87% | 1018.1 hPa | 0 mm | - | 0 W/m² | - |
| 1787710746 | 22.22° C | 88% | 1018.1 hPa | 0 mm | - | 0 W/m² | - |
| 1787710440 | 22.78° C | 88% | 1018.3 hPa | 0 mm | - | 0 W/m² | - |
* Rain latest hour (hover to see other rain measurements)
** Current wind speed in m/s (hover to see current wind gust speed)